Showing default

LEMUR 1, 40044

Orbit data source: Space-Track

LEMUR 1, 40044 is a payload satellite owned by NanoSatisfi (US) in SSO that was launched on Thu, 19 Jun 2014 UTC via a DNEPR launch vehicle from the Orenburg, Russia (OREN). Payloads include a variety of satellites, spacecraft, and rockets equipped with specific instruments for various scientific and technological missions. These include communications satellites like Starlink; space stations such as the ISS; scientific satellites like the Hubble; Earth observation satellites from companies like Planet Labs, Umbra, and HawkEye 360; GPS; miniature CubeSats for education and research; and military/defense satellites.

Loading next visibility...
LEMUR 1 details
Identifier
40044, 2014-033AL
Orbit
SSO
Last TLE update10 hours ago
Origin
Flag of USNanoSatisfi (US)
ManufacturerNanoSatisfi
MissionOperational Commercial Technology
Bus & MotorCUBESAT 3U, Unknown motor
Mass~4 kg wet, ~4 kg dry
Launch date (UTC)
2014-06-19 (11 years ago)
Launch vehicle
DNEPR
Launch site
Orenburg, Russia (OREN)
Object type
Payload
Rocket body
Debris
Shape & HBRBox, 0.5 m
Radar Cross Section0.093 m², Small (<0.1 m²)

Expand to show TLE details & history

TLE from 10 hours ago
0 LEMUR 1
1 40044U 14033AL  25044.43476104  .00004690  00000-0  58691-3 0  9998
2 40044  97.7210 203.1286 0050750 239.1934 120.4279 14.81831316572993
Epoch: 2025-02-13T10:26Z
Definitive object data (Epoch: 2025-02-13T10:26:03.353Z)
Latitude-0.00007°
Longitude-97.09629°
Altitude644.712 km
Speed7.526 km/s
True Right ascension13h 32m 30s
True Declination0° 00' 00"
Sunlit
Object was in full shadow at TLE epoch
Visualization TLE readout
Latitude23.43023°
Longitude-100.05148°
Altitude655.805 km
Speed7.516 km/s
Apparent Right ascension12h 16m 51s
Apparent Declination-6° 49' 32"
Sunlit
Object is in full shadow
Visualization observer readout
Local Sidereal Time22:51:51
Azimuth324.4° NNW
Elevation-51.816°
Doppler factor1
Orbital elements
Apogee altitude656.098 km
Perigee altitude585.061 km
Semi-major axis6,998.717 km
Eccentricity0.005075
Inclination97.721°
RAAN203.1286°
Arg. of periapsis239.1934°
True anomaly120.92774°
Mean anomaly120.4279°
Eccentric anomaly120.67798°
Mean motion3.70694 °/min
BSTAR0.00058691
Orbital period97.12 mins
Loading maneuver chart data...
Loading historical data...
Loading historical data...
Loading historical data...
Loading historical data...
Loading historical data...
Loading historical data...
Loading historical data...

LEMUR 1 Visibility forecast

Observer location: undefined°, undefined

Span
Click to sort rows by Start time (UTC) header in descending order
Start Az.
Max El. time (UTC)
Max El. Az.
Max El.
End time (UTC)
End Az.
5 mins2025-02-13 22:22:52.364Z56.331° ENE2025-02-13 22:24:52.364Z88.719° E18.673°2025-02-13 22:27:52.364Z136.693° SSE
6 mins2025-02-13 23:58:52.364Z342.458° N2025-02-14 00:01:52.364Z274.503° WNW28.674°2025-02-14 00:04:52.364Z227.112° WSW
4 mins2025-02-14 09:17:52.364Z90.283° ESE2025-02-14 09:19:52.364Z59.951° ENE15.411°2025-02-14 09:21:52.364Z31.98° NE
6 mins2025-02-14 10:52:52.364Z196.083° SSW2025-02-14 10:54:52.364Z239.873° WSW36.439°2025-02-14 10:58:52.364Z332.942° NNW
|